When you browse on this site, cookies collect data to enhance your experience and personalize the content and advertising you see.
Visit our Privacy Policy to learn more. By continuing to use the site, you agree to this use of cookies and data.
  • In Hungary
  • List of Countries
  • For 7 days
  • Water Temperature
  • Weather Map
  • News
  • Weather Widgets
  • user-avatar
    Login

    Hourly Weather Dobrzenice

    Today, 11 November, Monday

    Time Temperature Precipitation Wind Pressure Humidity
    00:00 +3°C° 0 mm 1 mps 739 mmHg 88%
    01:00 +3°C° 0 mm 1 mps 739 mmHg 88%
    02:00 +3°C° 0 mm 1 mps 739 mmHg 88%
    03:00 +2°C° 0 mm 1 mps 739 mmHg 88%
    04:00 +2°C° 0 mm 1 mps 739 mmHg 88%
    05:00 +2°C° 0 mm 1 mps 739 mmHg 88%
    06:00 +2°C° 0 mm 1 mps 739 mmHg 88%
    07:00 -1°C° 0 mm 2 mps 739 mmHg 85%
    08:00 +2°C° 0 mm 2 mps 739 mmHg 79%
    09:00 +3°C° 0 mm 2 mps 739 mmHg 72%
    10:00 +5°C° 0 mm 2 mps 739 mmHg 66%
    11:00 +6°C° 0 mm 2 mps 738 mmHg 62%
    12:00 +7°C° 0 mm 2 mps 738 mmHg 58%
    13:00 +7°C° 0 mm 2 mps 737 mmHg 56%
    14:00 +6°C° 0 mm 2 mps 737 mmHg 61%
    15:00 +5°C° 0 mm 2 mps 736 mmHg 66%
    16:00 +4°C° 0 mm 2 mps 735 mmHg 71%
    17:00 +4°C° 0 mm 2 mps 735 mmHg 74%
    18:00 +4°C° 0 mm 2 mps 735 mmHg 76%
    19:00 +4°C° 0 mm 1 mps 735 mmHg 79%
    20:00 +3°C° 0 mm 2 mps 735 mmHg 80%
    21:00 +3°C° 0 mm 2 mps 734 mmHg 81%
    22:00 +4°C° 0 mm 2 mps 734 mmHg 83%
    23:00 +4°C° 0 mm 2 mps 734 mmHg 82%

    Tomorrow, 12 November, Tuesday

    Time Temperature Precipitation Wind Pressure Humidity
    00:00 +5°C° 0 mm 2 mps 734 mmHg 82%
    01:00 +4°C° 0 mm 3 mps 733 mmHg 82%
    02:00 +5°C° 0 mm 2 mps 733 mmHg 82%
    03:00 +6°C° 0 mm 2 mps 733 mmHg 83%
    04:00 +6°C° 0 mm 2 mps 733 mmHg 83%
    05:00 +6°C° 0 mm 2 mps 734 mmHg 83%
    06:00 +6°C° 0 mm 2 mps 734 mmHg 83%
    07:00 +7°C° 0 mm 2 mps 734 mmHg 83%
    08:00 +7°C° 0 mm 2 mps 734 mmHg 81%
    09:00 +7°C° 0 mm 2 mps 734 mmHg 78%
    10:00 +7°C° 0 mm 2 mps 734 mmHg 75%
    11:00 +6°C° 0 mm 2 mps 734 mmHg 75%
    12:00 +6°C° 0 mm 2 mps 734 mmHg 75%
    13:00 +7°C° 0 mm 1 mps 734 mmHg 75%
    14:00 +7°C° 0.6 mm 1 mps 733 mmHg 80%
    15:00 +6°C° 0.6 mm 1 mps 733 mmHg 86%
    16:00 +6°C° 0.6 mm 1 mps 732 mmHg 92%
    17:00 +6°C° 1.3 mm 1 mps 732 mmHg 93%
    18:00 +6°C° 1.3 mm 1 mps 732 mmHg 95%
    19:00 +6°C° 1.3 mm 1 mps 732 mmHg 97%
    20:00 +6°C° 0.8 mm 1 mps 732 mmHg 97%
    21:00 +6°C° 0.8 mm 1 mps 731 mmHg 97%
    22:00 +6°C° 0.8 mm 1 mps 731 mmHg 97%
    23:00 +6°C° 1.1 mm 1 mps 731 mmHg 97%

    Day after tomorrow, 13 November, Wednesday

    Time Temperature Precipitation Wind Pressure Humidity
    00:00 +6°C° 1.1 mm 1 mps 731 mmHg 97%
    01:00 +6°C° 1.1 mm 1 mps 731 mmHg 98%
    02:00 +6°C° 0.2 mm 1 mps 730 mmHg 97%
    03:00 +6°C° 0.2 mm 1 mps 730 mmHg 97%
    04:00 +6°C° 0.2 mm 1 mps 729 mmHg 97%
    05:00 +6°C° 0 mm 1 mps 729 mmHg 97%
    06:00 +6°C° 0 mm 1 mps 729 mmHg 97%
    07:00 +6°C° 0 mm 1 mps 729 mmHg 97%
    08:00 +5°C° 0.3 mm 2 mps 729 mmHg 96%
    09:00 +5°C° 0.3 mm 2 mps 729 mmHg 96%
    10:00 +5°C° 0.3 mm 2 mps 729 mmHg 95%
    11:00 +5°C° 0.7 mm 2 mps 728 mmHg 95%
    12:00 +5°C° 0.7 mm 2 mps 728 mmHg 95%
    13:00 +5°C° 0.7 mm 2 mps 728 mmHg 95%
    14:00 +5°C° 0.6 mm 2 mps 728 mmHg 96%
    15:00 +5°C° 0.6 mm 2 mps 728 mmHg 96%
    16:00 +5°C° 0.6 mm 2 mps 728 mmHg 96%
    17:00 +4°C° 1.5 mm 3 mps 728 mmHg 96%
    18:00 +4°C° 1.5 mm 3 mps 728 mmHg 97%
    19:00 +4°C° 1.5 mm 4 mps 728 mmHg 97%
    20:00 +2°C° 5.1 mm 5 mps 728 mmHg 97%
    21:00 +2°C° 5.1 mm 5 mps 728 mmHg 97%
    22:00 +2°C° 5.1 mm 6 mps 728 mmHg 97%
    23:00 +2°C° 1.5 mm 5 mps 728 mmHg 96%

    14 November, Thursday

    Time Temperature Precipitation Wind Pressure Humidity
    00:00 +1°C° 1.5 mm 5 mps 729 mmHg 95%
    01:00 +1°C° 1.5 mm 4 mps 730 mmHg 94%
    02:00 +1°C° 0.1 mm 4 mps 730 mmHg 94%
    03:00 +2°C° 0.1 mm 3 mps 731 mmHg 94%
    04:00 +3°C° 0.1 mm 2 mps 731 mmHg 94%
    05:00 +3°C° 0 mm 2 mps 732 mmHg 93%
    06:00 +4°C° 0 mm 1 mps 732 mmHg 92%
    07:00 +3°C° 0 mm 0 mps 733 mmHg 91%
    08:00 +4°C° 0 mm 1 mps 733 mmHg 90%
    09:00 +5°C° 0 mm 1 mps 733 mmHg 88%
    10:00 +5°C° 0 mm 1 mps 733 mmHg 86%
    11:00 +5°C° 0 mm 2 mps 733 mmHg 85%
    12:00 +6°C° 0 mm 2 mps 733 mmHg 84%
    13:00 +6°C° 0 mm 2 mps 733 mmHg 82%
    14:00 +6°C° 0 mm 2 mps 733 mmHg 84%
    15:00 +6°C° 0 mm 2 mps 733 mmHg 86%
    16:00 +6°C° 0 mm 2 mps 733 mmHg 88%
    17:00 +6°C° 0 mm 2 mps 733 mmHg 90%
    18:00 +6°C° 0 mm 2 mps 733 mmHg 92%
    19:00 +6°C° 0 mm 1 mps 733 mmHg 93%
    20:00 +5°C° 0 mm 2 mps 733 mmHg 94%
    21:00 +6°C° 0 mm 2 mps 732 mmHg 94%
    22:00 +6°C° 0 mm 2 mps 732 mmHg 94%
    23:00 +6°C° 0 mm 2 mps 732 mmHg 94%

    15 November, Friday

    Time Temperature Precipitation Wind Pressure Humidity
    00:00 +6°C° 0 mm 2 mps 732 mmHg 94%
    01:00 +6°C° 0 mm 2 mps 731 mmHg 94%
    02:00 +7°C° 0 mm 2 mps 731 mmHg 93%
    03:00 +7°C° 0 mm 3 mps 731 mmHg 93%
    04:00 +7°C° 0 mm 3 mps 731 mmHg 92%
    05:00 +6°C° 0 mm 4 mps 731 mmHg 91%
    06:00 +7°C° 0 mm 4 mps 731 mmHg 89%
    07:00 +7°C° 0 mm 5 mps 730 mmHg 88%
    08:00 +8°C° 0 mm 5 mps 731 mmHg 84%
    09:00 +10°C° 0 mm 6 mps 731 mmHg 80%
    10:00 +13°C° 0 mm 6 mps 731 mmHg 75%
    11:00 +13°C° 0 mm 6 mps 731 mmHg 71%
    12:00 +14°C° 0 mm 6 mps 731 mmHg 67%
    13:00 +15°C° 0 mm 5 mps 731 mmHg 63%
    14:00 +14°C° 0 mm 5 mps 731 mmHg 67%
    15:00 +13°C° 0 mm 5 mps 731 mmHg 70%
    16:00 +11°C° 0 mm 4 mps 731 mmHg 74%
    17:00 +11°C° 0 mm 4 mps 731 mmHg 75%
    18:00 +11°C° 0 mm 4 mps 731 mmHg 77%
    19:00 +10°C° 0 mm 4 mps 732 mmHg 78%
    20:00 +10°C° 0 mm 3 mps 732 mmHg 79%
    21:00 +10°C° 0 mm 3 mps 732 mmHg 79%
    22:00 +10°C° 0 mm 3 mps 733 mmHg 79%
    23:00 +10°C° 0 mm 3 mps 733 mmHg 80%

    16 November, Saturday

    Time Temperature Precipitation Wind Pressure Humidity
    00:00 +10°C° 0 mm 3 mps 733 mmHg 80%
    01:00 +10°C° 0 mm 4 mps 733 mmHg 80%
    02:00 +10°C° 0 mm 4 mps 733 mmHg 79%
    03:00 +9°C° 0 mm 5 mps 733 mmHg 79%
    04:00 +9°C° 0 mm 5 mps 733 mmHg 78%
    05:00 +9°C° 0 mm 6 mps 733 mmHg 78%
    06:00 +9°C° 0 mm 6 mps 733 mmHg 79%
    07:00 +9°C° 0 mm 7 mps 733 mmHg 79%
    08:00 +10°C° 0 mm 6 mps 733 mmHg 77%
    09:00 +12°C° 0 mm 5 mps 734 mmHg 75%
    10:00 +13°C° 0 mm 5 mps 735 mmHg 72%
    11:00 +13°C° 0 mm 4 mps 735 mmHg 73%
    12:00 +13°C° 0 mm 4 mps 736 mmHg 73%
    13:00 +13°C° 0 mm 4 mps 736 mmHg 74%
    14:00 +13°C° 0 mm 3 mps 736 mmHg 76%
    15:00 +13°C° 0 mm 2 mps 737 mmHg 79%
    16:00 +12°C° 0 mm 2 mps 737 mmHg 81%
    17:00 +11°C° 0 mm 1 mps 738 mmHg 83%
    18:00 +10°C° 0 mm 1 mps 739 mmHg 85%
    19:00 +10°C° 0 mm 1 mps 739 mmHg 88%
    20:00 +9°C° 0 mm 1 mps 739 mmHg 89%
    21:00 +9°C° 0 mm 1 mps 740 mmHg 90%
    22:00 +9°C° 0 mm 1 mps 740 mmHg 91%
    23:00 +9°C° 0 mm 1 mps 739 mmHg 92%
    Show more